Location: Chandrammap?lem
(16.9200°N, 81.0051°E)
Time: 11:22:45
(UTC+00:00)

Sakura Rocket - Pass Details

Date: 29 May 2024
Orbit: 475 x 1715 km, 28.7° (Epoch: 14 June)

Event Time Altitude Azimuth Distance (km) Brightness Sun altitude
Exits shadow 21:47:05 67° 206° (SSW) 1,248 4.2 -28.8°
Maximum altitude 21:48:03 75° 154° (SSE) 1,160 4.2 -28.6°
Drops below altitude 10° 21:54:21 10° 70° (ENE) 2,565 7.1 -27.4°
Sets 21:56:33 0° 68° (ENE) 3,344 8.0 -27.0°
